| time (UTC) | temp F | wind direction | speed MPH | gust MPH | rain 1hr in | rain 24hr in | rain mn in | humidity % | barometer mb |
| 20260505153120 | 58 | 238 | 8.0 | 16.0 | 0.00 | 0.00 | 0.00 | 42 | 1013.3 |
| 20260505151116 | 57 | 228 | 10.0 | 21.0 | 0.00 | 0.00 | 0.00 | 43 | 1013.6 |
| 20260505140409 | 52 | 258 | 7.0 | 13.0 | 0.00 | 0.00 | 0.00 | 46 | 1013.6 |
| 20260505140113 | 52 | 258 | 7.0 | 13.0 | 0.00 | 0.00 | 0.00 | 46 | 1013.6 |
| 20260505124959 | 45 | 266 | 1.0 | 6.0 | 0.00 | 0.00 | 0.00 | 53 | 1013.2 |
| 20260505124635 | 45 | 266 | 1.0 | 6.0 | 0.00 | 0.00 | 0.00 | 53 | 1013.2 |
| 20260505122908 | 45 | 244 | 1.0 | 7.0 | 0.00 | 0.00 | 0.00 | 53 | 1013.4 |
| 20260505122628 | 45 | 244 | 1.0 | 7.0 | 0.00 | 0.00 | 0.00 | 53 | 1013.4 |
| 20260505122145 | 45 | 246 | 3.0 | 9.0 | 0.00 | 0.00 | 0.00 | 54 | 1013.4 |
| 20260505121950 | 45 | 256 | 5.0 | 9.0 | 0.00 | 0.00 | 0.00 | 54 | 1013.4 |
| 20260505121700 | 45 | 256 | 5.0 | 9.0 | 0.00 | 0.00 | 0.00 | 54 | 1013.4 |
| 20260505121628 | 45 | 256 | 5.0 | 9.0 | 0.00 | 0.00 | 0.00 | 54 | 1013.4 |
| 20260505120756 | 46 | 302 | 2.0 | 5.0 | 0.00 | 0.00 | 0.00 | 52 | 1013.7 |
| 20260505120621 | 46 | 302 | 2.0 | 5.0 | 0.00 | 0.00 | 0.00 | 52 | 1013.7 |
| 20260505120433 | 46 | 302 | 2.0 | 5.0 | 0.00 | 0.00 | 0.00 | 52 | 1013.7 |
| 20260505120256 | 47 | 0 | 0.0 | 1.0 | 0.00 | 0.00 | 0.00 | 49 | 1013.8 |
| 20260505115910 | 47 | 0 | 0.0 | 1.0 | 0.00 | 0.00 | 0.00 | 49 | 1013.8 |
| 20260505115720 | 48 | 0 | 0.0 | 2.0 | 0.00 | 0.00 | 0.00 | 49 | 1013.9 |
| 20260505115424 | 48 | 0 | 0.0 | 2.0 | 0.00 | 0.00 | 0.00 | 49 | 1013.9 |
| 20260505115011 | 48 | 0 | 0.0 | 7.0 | 0.00 | 0.00 | 0.00 | 49 | 1013.9 |
| 20260505114910 | 48 | 0 | 0.0 | 7.0 | 0.00 | 0.00 | 0.00 | 49 | 1013.9 |
| 20260505114311 | 48 | 303 | 3.0 | 11.0 | 0.00 | 0.00 | 0.00 | 49 | 1013.8 |
| 20260505113912 | 48 | 303 | 3.0 | 11.0 | 0.00 | 0.00 | 0.00 | 49 | 1013.8 |
| 20260505113655 | 48 | 256 | 6.0 | 13.0 | 0.00 | 0.00 | 0.00 | 50 | 1013.7 |
| 20260505113410 | 48 | 256 | 6.0 | 13.0 | 0.00 | 0.00 | 0.00 | 50 | 1013.7 |
| 20260505113241 | 49 | 267 | 7.0 | 14.0 | 0.00 | 0.00 | 0.00 | 49 | 1013.5 |
| 20260505112910 | 49 | 267 | 7.0 | 14.0 | 0.00 | 0.00 | 0.00 | 49 | 1013.5 |
| 20260505112746 | 48 | 266 | 9.0 | 21.0 | 0.00 | 0.00 | 0.00 | 49 | 1013.4 |
| 20260505112410 | 48 | 266 | 9.0 | 21.0 | 0.00 | 0.00 | 0.00 | 49 | 1013.4 |
| 20260505111756 | 48 | 260 | 11.0 | 19.0 | 0.00 | 0.00 | 0.00 | 49 | 1013.5 |
| 20260505111505 | 48 | 260 | 11.0 | 19.0 | 0.00 | 0.00 | 0.00 | 49 | 1013.5 |
| 20260505111410 | 48 | 260 | 11.0 | 19.0 | 0.00 | 0.00 | 0.00 | 49 | 1013.5 |
| 20260505111328 | 49 | 249 | 12.0 | 19.0 | 0.00 | 0.00 | 0.00 | 49 | 1013.5 |
| 20260505110920 | 49 | 249 | 12.0 | 19.0 | 0.00 | 0.00 | 0.00 | 49 | 1013.5 |
| 20260505110719 | 49 | 247 | 10.0 | 17.0 | 0.00 | 0.00 | 0.00 | 48 | 1013.7 |
| 20260505110410 | 49 | 247 | 10.0 | 17.0 | 0.00 | 0.00 | 0.00 | 48 | 1013.7 |
| 20260505101906 | 47 | 228 | 3.0 | 6.0 | 0.00 | 0.00 | 0.00 | 45 | 1014.2 |
| 20260505101416 | 48 | 214 | 1.0 | 3.0 | 0.00 | 0.00 | 0.00 | 43 | 1014.2 |
| 20260505100905 | 48 | 214 | 1.0 | 6.0 | 0.00 | 0.00 | 0.00 | 42 | 1014.1 |
| 20260505100420 | 48 | 209 | 2.0 | 7.0 | 0.00 | 0.00 | 0.00 | 42 | 1014.1 |
| 20260505100238 | 49 | 236 | 3.0 | 9.0 | 0.00 | 0.00 | 0.00 | 42 | 1014.1 |
| 20260505095912 | 49 | 236 | 3.0 | 9.0 | 0.00 | 0.00 | 0.00 | 42 | 1014.1 |
| 20260505095419 | 49 | 230 | 5.0 | 11.0 | 0.00 | 0.00 | 0.00 | 41 | 1014.2 |
| 20260505095002 | 49 | 230 | 5.0 | 11.0 | 0.00 | 0.00 | 0.00 | 41 | 1014.2 |
| 20260505094904 | 49 | 230 | 5.0 | 11.0 | 0.00 | 0.00 | 0.00 | 41 | 1014.2 |
| 20260505093652 | 50 | 233 | 3.0 | 9.0 | 0.00 | 0.00 | 0.00 | 40 | 1014.2 |
| 20260505093419 | 50 | 233 | 3.0 | 9.0 | 0.00 | 0.00 | 0.00 | 40 | 1014.2 |
| 20260505092914 | 50 | 241 | 5.0 | 11.0 | 0.00 | 0.00 | 0.00 | 40 | 1014.0 |
| 20260505092417 | 50 | 228 | 5.0 | 12.0 | 0.00 | 0.00 | 0.00 | 40 | 1013.8 |
| 20260505092257 | 50 | 234 | 6.0 | 12.0 | 0.00 | 0.00 | 0.00 | 40 | 1013.7 |
| 20260505091943 | 50 | 234 | 6.0 | 12.0 | 0.00 | 0.00 | 0.00 | 40 | 1013.7 |
| 20260505091909 | 50 | 234 | 6.0 | 12.0 | 0.00 | 0.00 | 0.00 | 40 | 1013.7 |
| 20260505091404 | 50 | 234 | 6.0 | 12.0 | 0.00 | 0.00 | 0.00 | 40 | 1013.8 |
| 20260505091148 | 51 | 246 | 7.0 | 15.0 | 0.00 | 0.00 | 0.00 | 40 | 1013.8 |
| 20260505090922 | 51 | 246 | 7.0 | 15.0 | 0.00 | 0.00 | 0.00 | 40 | 1013.8 |
| 20260505090615 | 51 | 253 | 10.0 | 17.0 | 0.00 | 0.00 | 0.00 | 40 | 1013.9 |
| 20260505090413 | 51 | 253 | 10.0 | 17.0 | 0.00 | 0.00 | 0.00 | 40 | 1013.9 |
| 20260505085257 | 51 | 254 | 10.0 | 16.0 | 0.00 | 0.00 | 0.00 | 40 | 1013.8 |
| 20260505084904 | 51 | 254 | 10.0 | 16.0 | 0.00 | 0.00 | 0.00 | 40 | 1013.8 |
| 20260505083904 | 51 | 248 | 9.0 | 15.0 | 0.00 | 0.00 | 0.00 | 40 | 1013.8 |
| 20260505083238 | 52 | 237 | 7.0 | 15.0 | 0.00 | 0.00 | 0.00 | 40 | 1014.1 |
| 20260505083039 | 52 | 237 | 7.0 | 15.0 | 0.00 | 0.00 | 0.00 | 40 | 1014.1 |
| 20260505082904 | 52 | 237 | 7.0 | 15.0 | 0.00 | 0.00 | 0.00 | 40 | 1014.1 |
| 20260505081904 | 52 | 239 | 8.0 | 15.0 | 0.00 | 0.00 | 0.00 | 40 | 1014.2 |
| 20260505081409 | 52 | 245 | 9.0 | 15.0 | 0.00 | 0.00 | 0.00 | 40 | 1013.9 |
| 20260505081237 | 52 | 244 | 9.0 | 15.0 | 0.00 | 0.00 | 0.00 | 40 | 1013.9 |
| 20260505080905 | 52 | 244 | 9.0 | 15.0 | 0.00 | 0.00 | 0.00 | 40 | 1013.9 |
| 20260505080412 | 52 | 240 | 7.0 | 11.0 | 0.00 | 0.00 | 0.00 | 40 | 1014.0 |
| 20260505075909 | 52 | 241 | 5.0 | 13.0 | 0.00 | 0.00 | 0.00 | 40 | 1014.1 |
| 20260505075720 | 52 | 239 | 6.0 | 13.0 | 0.00 | 0.00 | 0.00 | 39 | 1014.0 |
| 20260505075404 | 52 | 239 | 6.0 | 13.0 | 0.00 | 0.00 | 0.00 | 39 | 1014.0 |
| 20260505074316 | 52 | 245 | 10.0 | 14.0 | 0.00 | 0.00 | 0.00 | 39 | 1014.1 |
| 20260505073912 | 52 | 245 | 10.0 | 14.0 | 0.00 | 0.00 | 0.00 | 39 | 1014.1 |
| 20260505073404 | 52 | 258 | 7.0 | 13.0 | 0.00 | 0.00 | 0.00 | 39 | 1014.0 |
| 20260505073238 | 52 | 257 | 6.0 | 13.0 | 0.00 | 0.00 | 0.00 | 38 | 1014.2 |
| 20260505072904 | 52 | 257 | 6.0 | 13.0 | 0.00 | 0.00 | 0.00 | 38 | 1014.2 |
| 20260505072653 | 52 | 264 | 5.0 | 11.0 | 0.00 | 0.00 | 0.00 | 37 | 1014.3 |
| 20260505072404 | 52 | 264 | 5.0 | 11.0 | 0.00 | 0.00 | 0.00 | 37 | 1014.3 |
| 20260505072221 | 53 | 256 | 5.0 | 9.0 | 0.00 | 0.00 | 0.00 | 37 | 1014.3 |
| 20260505071904 | 53 | 256 | 5.0 | 9.0 | 0.00 | 0.00 | 0.00 | 37 | 1014.3 |
| 20260505071406 | 53 | 262 | 5.0 | 9.0 | 0.00 | 0.00 | 0.00 | 36 | 1014.3 |
| 20260505070615 | 54 | 264 | 3.0 | 10.0 | 0.00 | 0.00 | 0.00 | 35 | 1014.0 |
| 20260505070404 | 54 | 264 | 3.0 | 10.0 | 0.00 | 0.00 | 0.00 | 35 | 1014.0 |
| 20260505065409 | 54 | 267 | 2.0 | 11.0 | 0.00 | 0.00 | 0.00 | 35 | 1013.9 |
| 20260505064907 | 55 | 260 | 5.0 | 13.0 | 0.00 | 0.00 | 0.00 | 35 | 1014.0 |
| 20260505064241 | 55 | 260 | 7.0 | 17.0 | 0.00 | 0.00 | 0.00 | 34 | 1013.9 |
| 20260505063930 | 55 | 260 | 7.0 | 17.0 | 0.00 | 0.00 | 0.00 | 34 | 1013.9 |
| 20260505063646 | 55 | 261 | 8.0 | 17.0 | 0.00 | 0.00 | 0.00 | 34 | 1013.8 |
| 20260505063404 | 55 | 261 | 8.0 | 17.0 | 0.00 | 0.00 | 0.00 | 34 | 1013.8 |
| 20260505062407 | 55 | 252 | 10.0 | 15.0 | 0.00 | 0.00 | 0.00 | 34 | 1013.6 |
| 20260505061907 | 55 | 244 | 9.0 | 16.0 | 0.00 | 0.00 | 0.00 | 33 | 1013.7 |
| 20260505060437 | 56 | 251 | 9.0 | 17.0 | 0.00 | 0.00 | 0.00 | 33 | 1013.6 |
| 20260505060406 | 56 | 251 | 9.0 | 17.0 | 0.00 | 0.00 | 0.00 | 33 | 1013.6 |
| 20260505055405 | 56 | 247 | 9.0 | 15.0 | 0.00 | 0.00 | 0.00 | 31 | 1013.6 |
| 20260505055220 | 57 | 242 | 10.0 | 16.0 | 0.00 | 0.00 | 0.00 | 31 | 1013.6 |
| 20260505054904 | 57 | 242 | 10.0 | 16.0 | 0.00 | 0.00 | 0.00 | 31 | 1013.6 |
| 20260505041407 | 60 | 262 | 10.0 | 18.0 | 0.00 | 0.00 | 0.00 | 25 | 1013.4 |
| 20260505041249 | 60 | 260 | 10.0 | 20.0 | 0.00 | 0.00 | 0.00 | 25 | 1013.6 |
| 20260505040905 | 60 | 260 | 10.0 | 20.0 | 0.00 | 0.00 | 0.00 | 25 | 1013.6 |
| 20260505040220 | 60 | 254 | 12.0 | 21.0 | 0.00 | 0.00 | 0.00 | 25 | 1013.1 |
| 20260505035918 | 60 | 254 | 12.0 | 21.0 | 0.00 | 0.00 | 0.00 | 25 | 1013.1 |
| 20260505035827 | 63 | 250 | 13.0 | 27.0 | 0.00 | 0.00 | 0.00 | 23 | 1011.5 |
| 20260505035820 | 63 | 253 | 13.0 | 27.0 | 0.00 | 0.00 | 0.00 | 23 | 1011.5 |
| 20260505035317 | 60 | 248 | 10.0 | 18.0 | 0.00 | 0.00 | 0.00 | 25 | 1013.0 |
| 20260505034904 | 60 | 248 | 10.0 | 18.0 | 0.00 | 0.00 | 0.00 | 25 | 1013.0 |
| 20260505031818 | 61 | 247 | 12.0 | 17.0 | 0.00 | 0.00 | 0.00 | 24 | 1012.6 |
| 20260505031452 | 61 | 247 | 12.0 | 17.0 | 0.00 | 0.00 | 0.00 | 24 | 1012.6 |
| 20260505030920 | 61 | 256 | 10.0 | 16.0 | 0.00 | 0.00 | 0.00 | 24 | 1012.4 |
| 20260505030523 | 61 | 256 | 10.0 | 16.0 | 0.00 | 0.00 | 0.00 | 24 | 1012.4 |
| 20260505025956 | 61 | 257 | 9.0 | 16.0 | 0.00 | 0.00 | 0.00 | 24 | 1012.4 |
| 20260505025306 | 62 | 258 | 9.0 | 15.0 | 0.00 | 0.00 | 0.00 | 24 | 1012.5 |
| 20260505024802 | 62 | 254 | 8.0 | 19.0 | 0.00 | 0.00 | 0.00 | 24 | 1012.5 |
| 20260505024309 | 62 | 251 | 10.0 | 19.0 | 0.00 | 0.00 | 0.00 | 23 | 1012.4 |
| 20260505022917 | 62 | 258 | 14.0 | 24.0 | 0.00 | 0.00 | 0.00 | 23 | 1011.9 |
| 20260505021913 | 63 | 250 | 13.0 | 27.0 | 0.00 | 0.00 | 0.00 | 23 | 1011.5 |
| 20260505021421 | 63 | 253 | 13.0 | 27.0 | 0.00 | 0.00 | 0.00 | 23 | 1011.5 |
| 20260505020609 | 64 | 248 | 14.0 | 26.0 | 0.00 | 0.00 | 0.00 | 23 | 1011.0 |
| 20260505020413 | 64 | 245 | 16.0 | 31.0 | 0.00 | 0.00 | 0.00 | 23 | 1011.4 |
| 20260505015918 | 64 | 254 | 13.0 | 24.0 | 0.00 | 0.00 | 0.00 | 24 | 1011.1 |
| 20260505014930 | 64 | 248 | 14.0 | 26.0 | 0.00 | 0.00 | 0.00 | 23 | 1011.0 |
| 20260505013431 | 65 | 249 | 14.0 | 27.0 | 0.00 | 0.00 | 0.00 | 24 | 1011.8 |
| 20260505012919 | 65 | 249 | 17.0 | 30.0 | 0.00 | 0.00 | 0.00 | 24 | 1011.7 |
| 20260505012415 | 66 | 246 | 15.0 | 30.0 | 0.00 | 0.00 | 0.00 | 25 | 1011.7 |
| 20260505011415 | 66 | 246 | 16.0 | 30.0 | 0.00 | 0.00 | 0.00 | 26 | 1011.6 |
| 20260505010915 | 66 | 253 | 16.0 | 26.0 | 0.00 | 0.00 | 0.00 | 26 | 1011.6 |
| 20260505010413 | 67 | 253 | 17.0 | 26.0 | 0.00 | 0.00 | 0.00 | 25 | 1011.6 |
| 20260505005916 | 67 | 234 | 9.0 | 24.0 | 0.00 | 0.00 | 0.00 | 26 | 1011.7 |
| 20260505005416 | 68 | 242 | 15.0 | 24.0 | 0.00 | 0.00 | 0.00 | 27 | 1011.6 |
| 20260505004922 | 68 | 236 | 12.0 | 26.0 | 0.00 | 0.00 | 0.00 | 27 | 1011.5 |
| 20260505004414 | 68 | 239 | 15.0 | 26.0 | 0.00 | 0.00 | 0.00 | 28 | 1011.5 |
| 20260505003939 | 68 | 246 | 16.0 | 25.0 | 0.00 | 0.00 | 0.00 | 28 | 1011.8 |
| 20260505003413 | 68 | 243 | 14.0 | 26.0 | 0.00 | 0.00 | 0.00 | 28 | 1011.8 |
| 20260505002913 | 69 | 231 | 15.0 | 26.0 | 0.00 | 0.00 | 0.00 | 26 | 1011.5 |
| 20260505002428 | 69 | 244 | 18.0 | 26.0 | 0.00 | 0.00 | 0.00 | 26 | 1011.4 |
| 20260505000929 | 70 | 231 | 15.0 | 25.0 | 0.00 | 0.00 | 0.00 | 25 | 1011.6 |
| 20260505000430 | 70 | 237 | 14.0 | 27.0 | 0.00 | 0.00 | 0.00 | 24 | 1011.5 |
| 20260504235921 | 71 | 248 | 13.0 | 27.0 | 0.00 | 0.00 | 0.00 | 24 | 1011.7 |
| 20260504235417 | 71 | 245 | 14.0 | 22.0 | 0.00 | 0.00 | 0.00 | 24 | 1011.7 |
| 20260504234914 | 72 | 233 | 12.0 | 21.0 | 0.00 | 0.00 | 0.00 | 23 | 1011.6 |
| 20260504234413 | 72 | 211 | 9.0 | 21.0 | 0.00 | 0.00 | 0.00 | 22 | 1011.7 |
| 20260504233914 | 72 | 236 | 11.0 | 23.0 | 0.00 | 0.00 | 0.00 | 22 | 1011.7 |
| 20260504232913 | 73 | 227 | 7.0 | 22.0 | 0.00 | 0.00 | 0.00 | 23 | 1011.7 |
| 20260504232422 | 73 | 215 | 10.0 | 19.0 | 0.00 | 0.00 | 0.00 | 22 | 1011.7 |
| 20260504231921 | 73 | 212 | 8.0 | 19.0 | 0.00 | 0.00 | 0.00 | 23 | 1011.6 |
| 20260504231422 | 73 | 218 | 11.0 | 19.0 | 0.00 | 0.00 | 0.00 | 22 | 1011.5 |
| 20260504230428 | 74 | 213 | 9.0 | 25.0 | 0.00 | 0.00 | 0.00 | 22 | 1011.6 |
| 20260504225921 | 75 | 182 | 13.0 | 23.0 | 0.00 | 0.00 | 0.00 | 20 | 1011.6 |
| 20260504225413 | 76 | 196 | 10.0 | 21.0 | 0.00 | 0.00 | 0.00 | 21 | 1011.7 |
| 20260504224913 | 76 | 200 | 10.0 | 17.0 | 0.00 | 0.00 | 0.00 | 20 | 1011.7 |
| 20260504223851 | 74 | 214 | 10.0 | 19.0 | 0.00 | 0.00 | 0.00 | 21 | 1011.8 |
| 20260504223418 | 74 | 214 | 10.0 | 19.0 | 0.00 | 0.00 | 0.00 | 21 | 1011.8 |
| 20260504221949 | 74 | 227 | 11.0 | 17.0 | 0.00 | 0.01 | 0.00 | 21 | 1012.1 |
| 20260504221418 | 74 | 227 | 11.0 | 17.0 | 0.00 | 0.01 | 0.00 | 21 | 1012.1 |
| 20260504220947 | 54 | 154 | 5.0 | 9.0 | 0.00 | 0.02 | 0.00 | 48 | 1015.0 |
| 20260504220935 | 53 | 188 | 4.0 | 6.0 | 0.00 | 0.02 | 0.00 | 52 | 1015.1 |
| 20260504220931 | 74 | 203 | 6.0 | 14.0 | 0.00 | 0.02 | 0.00 | 21 | 1012.1 |
| 20260504220927 | 52 | 244 | 2.0 | 4.0 | 0.00 | 0.02 | 0.00 | 57 | 1015.0 |
| 20260504220913 | 75 | 216 | 7.0 | 17.0 | 0.00 | 0.02 | 0.00 | 21 | 1012.2 |
| 20260504220413 | 74 | 203 | 6.0 | 14.0 | 0.00 | 0.02 | 0.00 | 21 | 1012.1 |
| 20260504220402 | 74 | 210 | 8.0 | 21.0 | 0.00 | 0.02 | 0.00 | 20 | 1012.3 |
| 20260504220126 | 74 | 244 | 12.0 | 29.0 | 0.00 | 0.02 | 0.00 | 21 | 1012.5 |
| 20260504215915 | 74 | 210 | 8.0 | 21.0 | 0.00 | 0.02 | 0.00 | 20 | 1012.3 |
| 20260504215423 | 74 | 244 | 12.0 | 29.0 | 0.00 | 0.02 | 0.00 | 21 | 1012.5 |
| 20260504214417 | 75 | 235 | 9.0 | 14.0 | 0.00 | 0.02 | 0.00 | 20 | 1012.7 |
| 20260504213438 | 74 | 228 | 10.0 | 21.0 | 0.00 | 0.02 | 0.00 | 20 | 1012.9 |
| 20260504213426 | 75 | 255 | 10.0 | 21.0 | 0.00 | 0.02 | 0.00 | 20 | 1012.9 |
| 20260504212925 | 74 | 228 | 10.0 | 21.0 | 0.00 | 0.02 | 0.00 | 20 | 1012.9 |
| 20260504212423 | 74 | 182 | 9.0 | 20.0 | 0.00 | 0.02 | 0.00 | 18 | 1012.9 |
| 20260504212313 | 74 | 187 | 10.0 | 19.0 | 0.00 | 0.02 | 0.00 | 20 | 1013.0 |
| 20260504211922 | 74 | 187 | 10.0 | 19.0 | 0.00 | 0.02 | 0.00 | 20 | 1013.0 |
| 20260504210925 | 73 | 222 | 4.0 | 20.0 | 0.00 | 0.02 | 0.00 | 22 | 1013.1 |
| 20260504205425 | 72 | 222 | 6.0 | 18.0 | 0.00 | 0.02 | 0.00 | 23 | 1013.4 |
| 20260504204425 | 71 | 218 | 6.0 | 17.0 | 0.00 | 0.02 | 0.00 | 25 | 1013.4 |
| 20260504203955 | 71 | 176 | 10.0 | 17.0 | 0.00 | 0.02 | 0.00 | 24 | 1013.3 |
| 20260504203922 | 71 | 176 | 10.0 | 17.0 | 0.00 | 0.02 | 0.00 | 24 | 1013.3 |
| 20260504203425 | 71 | 179 | 8.0 | 15.0 | 0.00 | 0.02 | 0.00 | 24 | 1013.4 |
| 20260504202422 | 70 | 160 | 11.0 | 21.0 | 0.00 | 0.02 | 0.00 | 27 | 1013.6 |
| 20260504200929 | 70 | 197 | 9.0 | 18.0 | 0.00 | 0.02 | 0.00 | 28 | 1013.8 |
| 20260504195433 | 70 | 181 | 7.0 | 19.0 | 0.00 | 0.02 | 0.00 | 27 | 1013.9 |
| 20260504192500 | 69 | 197 | 9.0 | 16.0 | 0.00 | 0.02 | 0.00 | 28 | 1014.1 |
| 20260504192422 | 69 | 197 | 9.0 | 16.0 | 0.00 | 0.02 | 0.00 | 28 | 1014.1 |
| 20260504191102 | 70 | 175 | 7.0 | 16.0 | 0.00 | 0.02 | 0.00 | 32 | 1014.4 |
| 20260504191059 | 70 | 166 | 8.0 | 16.0 | 0.00 | 0.02 | 0.00 | 30 | 1014.2 |
| 20260504190929 | 70 | 175 | 7.0 | 16.0 | 0.00 | 0.02 | 0.00 | 32 | 1014.4 |
| 20260504190425 | 70 | 166 | 8.0 | 16.0 | 0.00 | 0.02 | 0.00 | 30 | 1014.2 |
| 20260504184422 | 67 | 151 | 4.0 | 15.0 | 0.00 | 0.02 | 0.00 | 31 | 1014.7 |
| 20260504183922 | 68 | 172 | 8.0 | 15.0 | 0.00 | 0.02 | 0.00 | 31 | 1014.7 |
| 20260504182427 | 66 | 183 | 6.0 | 11.0 | 0.00 | 0.02 | 0.00 | 35 | 1014.8 |
| 20260504181925 | 66 | 154 | 7.0 | 11.0 | 0.00 | 0.02 | 0.00 | 32 | 1015.1 |
| 20260504181054 | 65 | 156 | 6.0 | 13.0 | 0.00 | 0.02 | 0.00 | 34 | 1015.2 |
| 20260504180052 | 64 | 174 | 10.0 | 15.0 | 0.00 | 0.02 | 0.00 | 35 | 1015.0 |
| 20260504175101 | 64 | 160 | 9.0 | 14.0 | 0.00 | 0.02 | 0.00 | 35 | 1015.1 |
| 20260504174553 | 64 | 174 | 8.0 | 14.0 | 0.00 | 0.02 | 0.00 | 35 | 1015.2 |
| 20260504174100 | 64 | 171 | 8.0 | 14.0 | 0.00 | 0.02 | 0.00 | 36 | 1015.0 |
| 20260504173552 | 64 | 196 | 7.0 | 12.0 | 0.00 | 0.02 | 0.00 | 37 | 1015.1 |
| 20260504172052 | 63 | 153 | 3.0 | 9.0 | 0.00 | 0.02 | 0.00 | 37 | 1015.3 |
| 20260504171106 | 63 | 167 | 5.0 | 11.0 | 0.00 | 0.02 | 0.00 | 38 | 1015.5 |
| 20260504170554 | 63 | 163 | 6.0 | 11.0 | 0.00 | 0.02 | 0.00 | 39 | 1015.5 |
| 20260504170104 | 62 | 155 | 5.0 | 13.0 | 0.00 | 0.02 | 0.00 | 38 | 1015.3 |
| 20260504160104 | 61 | 157 | 8.0 | 16.0 | 0.00 | 0.02 | 0.00 | 43 | 1015.3 |